Location: Crayja
(6.2254°N, 10.6273°W)
Time: 08:08:11
(UTC+00:00)

GPS 2-14 Rocket1 - Pass Details

Date: 17 February 2020
Orbit: 477 x 542 km, 20.7° (Epoch: 06 April)

Event Time Altitude Azimuth Distance (km) Brightness Sun altitude
Exits shadow 05:11:48 42° 81° (E) 752 3.8 -26.9°
Drops below altitude 10° 05:14:36 10° 73° (ENE) 1,758 6.2 -26.2°
Sets 05:16:53 0° 71° (ENE) 2,655 7.3 -25.6°
